SPACEMOBILE-005

Last updated on Sun Oct 13 2024 00:02:03 GMT+0000 (Coordinated Universal Time)

1 61046U 24163B 24286.33451695 .00005784 00000+0 29947-3 0 9998 2 61046 52.9763 244.7961 0014308 56.4406 303.7951 15.17548165 4549
UTC large
Height (km)
Speed (km/s)
/
Latitude / Longitude
Inclination (degrees)
Orbital Period (minutes)
Azimuth
Elevation
Range (km)
Doppler Factor

Next 0 passes for location: London (51.5072 / 0.1276)

Sorry there are no passes over London.